Terminal Aerodrome Forecast
Issued by NWS

Home | Current Version | Previous Version | Text Only | Print | Product List | Glossary On
Versions: 1 2 3 4 5 6 7 8 9 10 11 12 13 14 15 16 17 18 19
000
FTUS41 KGYX 030117 AAB
TAFRKD
TAF AMD
KRKD 030117Z 0301/0324 03009G21KT 6SM -RADZ BR BKN005 OVC013
     FM030400 05003KT 2SM -DZ BR OVC003
     FM030600 31003KT 1/4SM FG OVC001
     FM031200 33003KT 5SM BR OVC003
     FM031400 VRB05KT P6SM OVC015
     FM031700 VRB05KT P6SM OVC050
      AMD LTD TO CLD VIS AND WIND=

USA.gov is the U.S. government's official web portal to all federal, state and local government web resources and services.